GW4950 Weather Reports


time (UTC)temp
C
wind
direction
speed
KPH
gust
KPH
rain 1hr
cm
rain 24hr
cm
rain mn
cm
humidity
%
barometer
mb
20260506220011 8 6 0.0 4.8 0.00 0.00 0.00 70 1009.7
20260506214531 8 7 3.2 6.4 0.00 0.00 0.00 69 1009.7
20260506213019 9 13 6.4 11.3 0.00 0.00 0.00 68 1009.7
20260506211552 8 29 0.0 4.8 0.00 0.00 0.00 70 1009.7
20260506210035 8 31 0.0 4.8 0.00 0.00 0.00 69 1009.7
20260506204522 9 87 0.0 3.2 0.00 0.00 0.00 67 1009.6
20260506203025 10 100 0.0 4.8 0.00 0.00 0.00 64 1009.5
20260506201535 11 100 0.0 6.4 0.00 0.00 0.00 60 1009.5
20260506200047 12 116 0.0 0.0 0.00 0.00 0.00 55 1009.3
20260506194530 14 116 0.0 0.0 0.00 0.00 0.00 44 1009.3
20260506193021 14 116 0.0 0.0 0.00 0.00 0.00 44 1009.2
20260506191507 14 116 0.0 0.0 0.00 0.00 0.00 43 1009.2
20260506190058 15 116 0.0 6.4 0.00 0.00 0.00 42 1009.1
20260506184520 15 118 3.2 8.0 0.00 0.00 0.00 40 1009.1
20260506183016 15 125 3.2 9.7 0.00 0.00 0.00 39 1009.0
20260506181552 16 122 4.8 9.7 0.00 0.00 0.00 39 1008.9
20260506180049 16 117 4.8 11.3 0.00 0.00 0.00 38 1009.0
20260506174508 16 121 1.6 14.5 0.00 0.00 0.00 39 1009.0
20260506173108 17 137 3.2 9.7 0.00 0.00 0.00 38 1009.0
20260506171506 16 111 0.0 11.3 0.00 0.00 0.00 39 1009.1
20260506170107 16 73 0.0 9.7 0.00 0.00 0.00 38 1009.1
20260506164508 16 158 3.2 11.3 0.00 0.00 0.00 37 1009.2
20260506163002 17 118 4.8 14.5 0.00 0.00 0.00 37 1009.2
20260506161516 17 14 0.0 12.9 0.00 0.00 0.00 38 1009.2
20260506160011 17 159 6.4 16.1 0.00 0.00 0.00 37 1009.3
20260506154532 18 11 1.6 16.1 0.00 0.00 0.00 38 1009.4
20260506153020 17 100 3.2 11.3 0.00 0.00 0.00 39 1009.5
20260506151602 17 115 1.6 14.5 0.00 0.00 0.00 39 1009.6
20260506151506 17 110 1.6 14.5 0.00 0.00 0.00 38 1009.6
20260506150046 17 212 1.6 14.5 0.00 0.00 0.00 39 1009.8
20260506144514 16 176 8.0 17.7 0.00 0.00 0.00 41 1010.0
20260506143004 17 217 3.2 14.5 0.00 0.00 0.00 42 1010.2
20260506141540 16 227 4.8 16.1 0.00 0.00 0.00 41 1010.3
20260506140022 16 183 9.7 17.7 0.00 0.00 0.00 43 1010.5
20260506134536 17 139 3.2 9.7 0.00 0.00 0.00 44 1010.6
20260506133029 15 210 6.4 16.1 0.00 0.00 0.00 43 1010.7
20260506131547 16 271 0.0 9.7 0.00 0.00 0.00 47 1010.8
20260506130036 15 140 0.0 12.9 0.00 0.00 0.00 48 1011.0
20260506124557 15 154 8.0 17.7 0.00 0.00 0.00 47 1011.1
20260506123036 16 150 3.2 11.3 0.00 0.00 0.00 47 1011.2
20260506121553 15 100 6.4 12.9 0.00 0.00 0.00 48 1011.3
20260506120045 15 141 1.6 12.9 0.00 0.00 0.00 52 1011.4
20260506114508 15 144 8.0 19.3 0.00 0.00 0.00 50 1011.6
20260506113057 14 92 1.6 11.3 0.00 0.00 0.00 47 1011.7
20260506111535 14 75 1.6 12.9 0.00 0.00 0.00 51 1011.8
20260506110021 14 99 1.6 16.1 0.00 0.00 0.00 52 1011.9
20260506104538 13 173 1.6 16.1 0.00 0.00 0.00 55 1012.0
20260506103025 12 150 0.0 11.3 0.00 0.00 0.00 55 1012.1
20260506101541 13 110 6.4 12.9 0.00 0.00 0.00 58 1012.1
20260506100029 13 177 3.2 11.3 0.00 0.00 0.00 56 1012.3
20260506094539 12 162 4.8 16.1 0.00 0.00 0.00 57 1012.2
20260506093029 12 103 3.2 9.7 0.00 0.00 0.00 60 1012.2
20260506091545 12 179 4.8 12.9 0.00 0.00 0.00 61 1012.2
20260506090041 11 102 1.6 8.0 0.00 0.00 0.00 64 1012.2
20260506084609 11 218 4.8 9.7 0.00 0.00 0.00 64 1012.2
20260506083041 11 117 4.8 8.0 0.00 0.00 0.00 65 1012.2
20260506081547 10 119 4.8 9.7 0.00 0.00 0.00 64 1012.2
20260506073035 9 146 0.0 8.0 0.00 0.00 0.00 69 1012.1
20260506071527 9 141 3.2 8.0 0.00 0.00 0.00 69 1012.1
20260506061546 5 8 3.2 6.4 0.00 0.00 0.00 85 1011.8
20260506050109 3 8 0.0 0.0 0.00 0.00 0.00 86 1011.3
20260506044545 3 8 1.6 6.4 0.00 0.00 0.00 86 1011.3
20260506043036 3 8 0.0 0.0 0.00 0.00 0.00 85 1011.2
20260506041553 3 8 0.0 0.0 0.00 0.00 0.00 85 1011.3
20260506040100 3 8 0.0 4.8 0.00 0.00 0.00 84 1011.3
20260506034510 3 8 0.0 6.4 0.00 0.00 0.00 84 1011.3
20260506033004 4 8 4.8 9.7 0.00 0.00 0.00 85 1011.4
20260506031522 3 5 0.0 3.2 0.00 0.00 0.00 85 1011.3
20260506030007 3 90 0.0 4.8 0.00 0.00 0.00 85 1011.3
20260506024554 3 90 0.0 0.0 0.00 0.00 0.00 85 1011.2
20260506023033 4 90 1.6 4.8 0.00 0.00 0.00 82 1011.2
20260506021607 5 90 3.2 4.8 0.00 0.00 0.00 82 1011.2
20260506020053 4 90 0.0 0.0 0.00 0.00 0.00 82 1011.2
20260506014508 5 90 0.0 0.0 0.00 0.00 0.00 80 1011.4
20260506013055 5 90 0.0 3.2 0.00 0.00 0.00 78 1011.4
20260506011608 6 118 1.6 4.8 0.00 0.00 0.00 74 1011.4
20260506010042 7 120 0.0 4.8 0.00 0.00 0.00 72 1011.3
20260506004553 7 123 1.6 9.7 0.00 0.00 0.00 71 1011.4
20260506004505 7 123 1.6 9.7 0.00 0.00 0.00 70 1011.4
20260506003052 8 142 0.0 9.7 0.00 0.00 0.00 67 1011.4
20260506001555 7 66 0.0 4.8 0.00 0.00 0.00 67 1011.5
20260506001504 7 66 0.0 4.8 0.00 0.00 0.00 67 1011.5
20260506000055 7 39 0.0 0.0 0.00 0.00 0.00 70 1011.5
20260505234542 7 37 0.0 4.8 0.00 0.00 0.00 72 1011.4
20260505233032 6 37 0.0 0.0 0.00 0.00 0.00 72 1011.4
20260505231603 7 37 0.0 4.8 0.00 0.00 0.00 69 1011.3
20260505230043 7 37 0.0 6.4 0.00 0.00 0.00 69 1011.3
20260505224550 8 34 0.0 3.2 0.00 0.00 0.00 64 1011.3
20260505223102 8 34 0.0 9.7 0.00 0.00 0.00 65 1011.3
20260505221514 9 325 6.4 9.7 0.00 0.00 0.00 62 1011.3